User: anonymous   Login
Location: Orange Harbor Mobile Home Park
(26.6923°N, 81.7937°W)
Time: 20:44:19
(UTC+00:00)
Language:

YAOGAN 1 - Orbit

View from above orbital plane
View from above orbital plane
View from above satellite
View from above satellite

Ground track
Ground track

The orbit data is extracted from the following two-line orbital elements,

1 29092U 06015A   20332.31992542  .00000175  00000-0  27996-4 0  9999
2 29092  97.9282 355.5255 0001402  89.6605 270.4769 14.83105858788979
Epoch (UTC): 27 November 2020 07:40:41
Eccentricity: 0.0001402
inclination: 97.9282°
perigee height: 618 km
apogee height: 620 km
right ascension of ascending node: 355.5255°
argument of perigee: 89.6605°
revolutions per day: 14.83105858
mean anomaly at epoch: 270.4769°
orbit number at epoch: 78897

The dashed part of the orbit path shows where the satellite is in the earth's shadow,  

DLR